Find Starlink 32813

NORAD ID: 62869 Int'l Des: 2025-022 Owner: SPXS Country: US Constellation: starlink operational
LEOCIRCULAR

現在のビュー

3D地球を読み込み中...

About Starlink 32813

Starlink 32813 (NORAD 62869) is a starlink constellation satellite (v2 mini) launched Feb 2, 2025 by SPXS of US. It operates in LEO, CIRCULAR orbit with a mass of 730.00 kg.

次回通過

Passes for default location (London). Set your location on the main map for personalized predictions.

高度履歴

Loading altitude history...

軌道要素

1 62869U 25022R 26263.39541838 .00013207 00000-0 40124-3 0 9999
2 62869 53.1588 302.1648 0001050 65.4729 294.6383 15.34405865 91754
Epoch: Sep 20, 2026 • Age: 16 hours

現在のステータス

高度 462.6 km
遠地点 / 近地点 N/A
速度 7.64 km/s
衛星直下点 6.00°N, 73.65°W
打ち上げ日 Feb 2, 2025
運用期間 1.6 years
タイプ internet

技術仕様

分類 Payload
質量 730.00 kg
乾燥質量 700.00 kg
長さ 0.30 m
スパン 29.00 m
形状 ? Box + pan
製造者 SPXS
バスタイプ Starlink V2M
フェーズステータス In Orbit
所有者/国 SPXS/US

Most Searched